CST,Max TemperatureF,Mean TemperatureF,Min TemperatureF,Max Dew PointF,MeanDew PointF,Min DewpointF,Max Humidity, Mean Humidity, Min Humidity, Max Sea Level PressureIn, Mean Sea Level PressureIn, Min Sea Level PressureIn, Max VisibilityMiles, Mean VisibilityMiles, Min VisibilityMiles, Max Wind SpeedMPH, Mean Wind SpeedMPH, Max Gust SpeedMPH,PrecipitationIn, CloudCover, Events, WindDirDegrees
2011-11-1,76,66,56,49,45,42,62,50,38,30.05,29.97,29.89,10,10,10,30,17,37,0.00,0,,167
2011-11-2,68,55,41,59,49,37,93,72,51,30.15,29.96,29.87,10,8,1,31,16,41,0.38,6,Rain,230
2011-11-3,56,47,37,38,30,26,76,54,32,30.31,30.24,30.17,10,10,10,29,14,39,T,1,,312
2011-11-4,62,46,29,41,34,27,92,67,42,30.28,30.18,30.08,10,10,10,15,5,17,0.00,0,,153
2011-11-5,62,54,45,45,43,42,92,72,51,30.07,29.96,29.81,10,10,9,25,15,33,0.00,3,,151
2011-11-6,73,64,55,63,56,44,87,74,61,30.00,29.93,29.85,10,9,2,23,13,30,0.40,7,Rain,163
2011-11-7,68,64,60,63,61,59,100,88,76,30.04,29.96,29.83,10,8,1,21,11,28,0.98,7,Rain-Thunderstorm,139
2011-11-8,65,55,45,61,56,41,97,89,80,30.02,29.84,29.75,10,8,1,25,13,35,1.66,8,Rain-Thunderstorm,180
2011-11-9,60,50,40,37,33,27,82,57,31,30.38,30.25,30.04,10,10,10,26,12,32,T,2,,313
2011-11-10,63,48,32,35,31,27,85,55,25,30.40,30.29,30.11,10,10,10,16,5,21,0.00,0,,225
2011-11-11,71,58,45,34,31,27,65,43,20,30.09,29.96,29.86,10,10,10,23,13,32,0.00,0,,189
2011-11-12,69,60,51,51,38,28,60,48,35,29.85,29.71,29.58,10,10,10,32,19,43,0.00,0,,175
2011-11-13,77,70,62,51,45,39,58,43,27,29.63,29.59,29.56,10,10,10,28,14,37,0.00,0,,197
2011-11-14,73,63,52,52,46,36,96,65,34,29.81,29.73,29.57,10,10,9,23,8,30,0.29,4,Rain,204
2011-11-15,70,58,46,58,50,36,100,75,50,29.88,29.75,29.70,10,6,0,17,5,23,T,4,Fog,354
2011-11-16,52,42,31,36,27,14,82,54,26,30.44,30.18,29.89,10,10,10,26,13,35,0.00,3,,360
2011-11-17,51,40,28,30,26,23,92,62,32,30.49,30.36,30.16,10,10,10,23,7,28,0.00,0,,184
2011-11-18,60,51,42,38,31,25,57,45,32,30.15,29.98,29.81,10,10,10,35,20,45,0.00,1,,169
2011-11-19,76,60,44,61,51,34,78,65,51,30.02,29.80,29.70,10,10,10,29,17,39,T,6,Rain,172
2011-11-20,44,41,37,36,34,33,92,79,65,30.25,30.16,30.02,10,7,2,20,10,24,T,8,,352
2011-11-21,43,40,37,42,37,34,96,88,79,30.25,30.09,29.96,9,6,2,20,8,24,0.91,8,Rain,350
2011-11-22,53,44,35,44,41,36,100,86,71,30.22,30.06,29.93,10,8,3,20,8,24,T,6,,316
2011-11-23,62,46,30,45,39,28,100,76,52,30.30,30.25,30.20,10,7,2,12,5,14,0.00,0,,160
2011-11-24,57,50,42,46,43,41,100,83,66,30.28,30.21,30.10,10,6,0,22,12,26,0.00,3,Fog,163
2011-11-25,60,53,46,54,48,43,89,78,67,30.09,29.95,29.81,10,9,7,28,18,36,T,7,Rain,168
2011-11-26,60,51,41,58,47,24,93,71,49,30.22,29.90,29.73,10,8,1,26,15,33,0.75,7,Rain,313
2011-11-27,45,37,29,25,23,19,72,57,41,30.31,30.25,30.22,10,10,10,23,12,31,0.00,0,,330
2011-11-28,49,36,23,28,25,20,88,65,42,30.21,30.13,30.04,10,10,10,7,3,,0.00,0,,332
2011-11-29,54,43,31,34,26,20,69,51,32,30.27,30.21,30.09,10,10,10,22,10,28,0.00,0,,329
2011-11-30,55,40,25,27,20,15,81,52,22,30.27,30.15,30.02,10,10,10,16,6,20,0.00,0,,151